Home > Weather > Steffisburg > Past weeks

Flag for Switzerland Past Weather in Steffisburg, Bern, Switzerland — Yesterday and Last 2 Weeks

Now
77 °F

Passing clouds.


Feels Like: 79 °F
Forecast: 55 / 80 °F
Wind: 3 mph from West

Location: Bern / Belp

Current Time: May 27, 2016 at 2:34:12 PM

Latest Report: May 27, 2016 at 1:50 PM


Visibility: N/A

Pressure: 29.95 "Hg (28.02 "Hg at 582m altitude)

Humidity: 51%

Dew Point: 57 °F

Location of SteffisburgLocation

Past Weather in Steffisburg — Graph

°F

Steffisburg Temperature Yesterday

Maximum temperature yesterday: 75 °F (at 3:20 PM)
Minimum temperature yesterday: 48 °F (at 1:20 AM)
Average temperature yesterday: 62 °F

High & Low Weather Summary for the Past Weeks

 TemperatureHumidityPressure
High79 °F (May 21, 6:20 PM)100% (May 12, 4:50 PM)30.18 "Hg (May 12, 4:50 PM)
Low36 °F (May 16, 4:50 AM)34% (May 21, 4:50 PM)29.53 "Hg (May 12, 1:20 PM)
Average53 °F81%29.96 "Hg
* Reported May 12 1:20 PM — May 27 1:20 PM, Steffisburg, Weather by CustomWeather, © 2016

Note: Actual official high and low records may vary slightly from our data, if they occured in-between our weather recording intervals... More about our weather records

Advertising

Steffisburg Weather History for the Previous 24 Hours

Scroll right to see more
 ConditionsComfort  
Time TempWeatherWind HumidityBarometerVisibility
1:20 PM
Fri, May 27
77 °FSunny.3 mph44%29.95 "Hg10 mi
12:50 PM75 °FSunny.3 mph50%29.98 "Hg10 mi
12:20 PM73 °FSunny.3 mph53%29.98 "Hg10 mi
11:50 AM72 °FPassing clouds.2 mph65%29.98 "HgN/A
11:20 AM70 °FSunny.3 mph64%29.98 "Hg10 mi
10:50 AM68 °FPassing clouds.2 mph69%29.98 "HgN/A
10:20 AM68 °FPassing clouds.2 mph64%30.01 "HgN/A
9:50 AM66 °FScattered clouds.1 mph68%30.01 "HgN/A
9:20 AM63 °FScattered clouds.No wind83%30.01 "HgN/A
8:50 AM61 °FPartly sunny.No wind88%30.01 "HgN/A
8:20 AM61 °FPartly sunny.No wind88%30.01 "HgN/A
7:50 AM57 °FScattered clouds.2 mph94%30.01 "HgN/A
7:20 AM55 °FPartly sunny.1 mph100%29.98 "HgN/A
6:50 AM54 °FPartly sunny.3 mph100%29.98 "HgN/A
6:20 AM54 °FPassing clouds.5 mph100%29.98 "HgN/A
5:50 AM54 °FPassing clouds.5 mph100%29.98 "HgN/A
5:20 AM54 °FClear.3 mph100%29.98 "HgN/A
4:50 AM54 °FPartly cloudy.3 mph100%29.98 "HgN/A
4:20 AM54 °FOvercast.1 mph100%29.98 "HgN/A
3:50 AM54 °FOvercast.2 mph100%29.98 "HgN/A
3:20 AM54 °FOvercast.1 mph100%29.98 "HgN/A
2:50 AM55 °FOvercast.2 mph100%29.95 "HgN/A
2:20 AM55 °FOvercast.1 mph100%29.95 "HgN/A
1:50 AM54 °FPassing clouds.3 mph100%29.95 "HgN/A
1:20 AM55 °FPassing clouds.2 mph100%29.95 "HgN/A
12:50 AM55 °FPassing clouds.2 mph100%29.95 "HgN/A
12:20 AM55 °FPassing clouds.1 mph100%29.95 "HgN/A
11:50 PM
Thu, May 26
55 °FPassing clouds.1 mph100%29.95 "HgN/A
11:20 PM57 °FPassing clouds.2 mph94%29.95 "HgN/A
10:50 PM57 °FPassing clouds.No wind94%29.95 "HgN/A
10:20 PM61 °FPassing clouds.No wind83%29.95 "HgN/A
9:50 PM63 °FPassing clouds.2 mph77%29.92 "HgN/A
9:20 PM63 °FPassing clouds.No wind83%29.92 "HgN/A
8:50 PM70 °FSunny.3 mph57%29.92 "Hg10 mi
8:20 PM72 °FPassing clouds.5 mph57%29.92 "HgN/A
7:50 PM73 °FSunny.7 mph57%29.92 "Hg10 mi
7:20 PM75 °FScattered clouds.5 mph54%29.92 "HgN/A
6:50 PM75 °FScattered clouds.5 mph50%29.92 "HgN/A
6:20 PM75 °FScattered clouds.3 mph50%29.92 "HgN/A
5:50 PM75 °FPartly sunny.3 mph47%29.95 "HgN/A
5:20 PM75 °FBroken clouds.3 mph47%29.95 "HgN/A
4:50 PM75 °FBroken clouds.7 mph47%29.95 "HgN/A
4:20 PM75 °FScattered clouds.7 mph47%29.95 "HgN/A
3:50 PM75 °FScattered clouds.7 mph44%29.95 "HgN/A
3:20 PM75 °FPassing clouds.5 mph41%29.98 "HgN/A
2:50 PM73 °FPassing clouds.6 mph50%29.98 "HgN/A
2:20 PM73 °FPassing clouds.5 mph50%29.98 "HgN/A
Weather by CustomWeather, © 2016

See weather overviewHow to use our weather pages